Location: Frizzleburg
(41.0764°N, 80.4548°W)
Time: 05:10:24
(UTC+00:00)

Okean 3 Rocket - Pass Details

Date: 17 November 2019
Orbit: 614 x 646 km, 82.5° (Epoch: 14 December)

Event Time Altitude Azimuth Distance (km) Brightness Sun altitude
Rises 09:54:09 0° 176° (S) 2,939 7.1 -25.8°
Reaches altitude 10° 09:56:25 10° 172° (S) 2,031 6.3 -25.4°
Maximum altitude 10:00:50 57° 94° (E) 758 4.2 -24.6°
Drops below altitude 10° 10:05:15 10° 16° (NNE) 2,031 6.3 -23.7°
Sets 10:07:31 0° 13° (NNE) 2,938 7.1 -23.3°
